TimeEDT,TemperatureF,Dew PointF,Humidity,Sea Level PressureIn,VisibilityMPH,Wind Direction,Wind SpeedMPH,Gust SpeedMPH,PrecipitationIn,Events,Conditions,WindDirDegrees,DateUTC
12:35 AM,28.6,21.7,76,30.03,10.0,North,5.8,-,N/A,,Clear,10,2013-03-23 04:35:00
12:55 AM,28.6,21.6,75,30.03,5.0,NNE,6.9,-,N/A,,Haze,30,2013-03-23 04:55:00
1:15 AM,29.7,20.8,70,30.03,10.0,NE,5.8,-,N/A,,Clear,40,2013-03-23 05:15:00
1:35 AM,30.4,19.6,64,30.03,10.0,NE,5.8,-,N/A,,Clear,40,2013-03-23 05:35:00
1:55 AM,30.2,19.0,63,30.03,10.0,NE,4.6,-,N/A,,Clear,50,2013-03-23 05:55:00
2:15 AM,29.8,19.0,64,30.03,10.0,ENE,4.6,-,N/A,,Scattered Clouds,70,2013-03-23 06:15:00
2:35 AM,29.5,16.9,59,30.03,7.0,ENE,3.5,-,N/A,,Clear,70,2013-03-23 06:35:00
2:55 AM,29.1,16.9,60,30.04,10.0,Calm,Calm,-,N/A,,Clear,0,2013-03-23 06:55:00
3:15 AM,28.9,17.6,63,30.03,10.0,NNE,4.6,-,N/A,,Mostly Cloudy,30,2013-03-23 07:15:00
3:35 AM,29.1,18.9,66,30.04,10.0,ENE,3.5,-,N/A,,Mostly Cloudy,60,2013-03-23 07:35:00
3:55 AM,29.3,17.8,62,30.04,7.0,Calm,Calm,-,N/A,,Mostly Cloudy,0,2013-03-23 07:55:00
4:15 AM,29.1,16.9,60,30.04,10.0,Calm,Calm,-,N/A,,Mostly Cloudy,0,2013-03-23 08:15:00
4:35 AM,28.8,19.2,68,30.03,10.0,Calm,Calm,-,N/A,,Overcast,0,2013-03-23 08:35:00
4:55 AM,28.6,19.8,70,30.03,10.0,Calm,Calm,-,N/A,,Overcast,0,2013-03-23 08:55:00
5:15 AM,28.0,21.7,77,30.02,10.0,Calm,Calm,-,N/A,,Mostly Cloudy,0,2013-03-23 09:15:00
5:35 AM,28.2,21.4,76,30.02,10.0,Calm,Calm,-,N/A,,Mostly Cloudy,0,2013-03-23 09:35:00
5:55 AM,27.7,22.1,80,30.02,10.0,Calm,Calm,-,N/A,,Scattered Clouds,0,2013-03-23 09:55:00
6:15 AM,27.3,21.2,78,30.03,10.0,Calm,Calm,-,N/A,,Clear,0,2013-03-23 10:15:00
6:35 AM,26.8,21.0,79,30.04,5.0,Calm,Calm,-,N/A,,Haze,0,2013-03-23 10:35:00
6:55 AM,26.6,20.8,79,30.04,4.0,Calm,Calm,-,N/A,Snow,Light Snow,0,2013-03-23 10:55:00
7:15 AM,26.6,20.1,77,30.05,10.0,Calm,Calm,-,N/A,Snow,Light Snow,0,2013-03-23 11:15:00
7:35 AM,26.8,19.4,74,30.06,7.0,Calm,Calm,-,N/A,Snow,Light Snow,0,2013-03-23 11:35:00
7:55 AM,27.3,19.2,72,30.06,7.0,NNE,3.5,-,N/A,Snow,Light Snow,20,2013-03-23 11:55:00
8:15 AM,27.9,20.3,73,30.06,5.0,NE,4.6,-,N/A,Snow,Light Snow,40,2013-03-23 12:15:00
8:35 AM,28.4,19.8,70,30.08,7.0,NE,3.5,-,N/A,Snow,Light Snow,40,2013-03-23 12:35:00
8:55 AM,28.4,19.4,69,30.08,5.0,ENE,5.8,-,N/A,,Haze,60,2013-03-23 12:55:00
9:15 AM,28.6,19.4,69,30.07,10.0,NE,5.8,-,N/A,,Scattered Clouds,40,2013-03-23 13:15:00
9:35 AM,29.3,20.3,69,30.08,7.0,NNE,4.6,-,N/A,,Clear,30,2013-03-23 13:35:00
9:55 AM,30.4,19.9,65,30.08,5.0,NE,3.5,-,N/A,,Haze,50,2013-03-23 13:55:00
10:15 AM,31.5,19.0,60,30.08,7.0,NE,3.5,-,N/A,,Clear,50,2013-03-23 14:15:00
10:35 AM,32.5,18.9,57,30.08,7.0,ENE,4.6,-,N/A,,Clear,70,2013-03-23 14:35:00
10:55 AM,33.4,18.1,54,30.08,4.0,ENE,3.5,-,N/A,Snow,Light Snow,60,2013-03-23 14:55:00
11:15 AM,34.5,17.1,49,30.09,4.0,Calm,Calm,-,N/A,,Haze,0,2013-03-23 15:15:00
11:35 AM,35.2,17.8,49,30.08,7.0,North,4.6,-,N/A,,Clear,10,2013-03-23 15:35:00
11:55 AM,35.6,17.1,47,30.08,7.0,Calm,Calm,-,N/A,,Clear,0,2013-03-23 15:55:00
12:15 PM,36.7,17.6,46,30.09,10.0,Calm,Calm,-,N/A,,Clear,0,2013-03-23 16:15:00
12:35 PM,37.4,18.1,46,30.08,10.0,Calm,Calm,-,N/A,,Clear,0,2013-03-23 16:35:00
12:55 PM,37.8,18.9,47,30.08,10.0,NW,6.9,-,N/A,,Clear,320,2013-03-23 16:55:00
1:15 PM,38.3,19.4,47,30.08,7.0,North,6.9,-,N/A,,Clear,360,2013-03-23 17:15:00
1:35 PM,38.7,19.9,47,30.07,7.0,North,3.5,-,N/A,,Clear,350,2013-03-23 17:35:00
1:55 PM,39.6,20.7,47,30.07,7.0,North,6.9,-,N/A,,Clear,10,2013-03-23 17:55:00
2:15 PM,40.1,19.4,43,30.06,7.0,NW,6.9,-,N/A,,Clear,310,2013-03-23 18:15:00
2:35 PM,40.5,19.0,42,30.04,10.0,North,4.6,-,N/A,,Clear,360,2013-03-23 18:35:00
2:55 PM,40.8,18.1,40,30.04,7.0,North,5.8,-,N/A,,Clear,350,2013-03-23 18:55:00
3:15 PM,41.4,17.6,38,30.04,5.0,NNW,5.8,-,N/A,,Haze,340,2013-03-23 19:15:00
3:35 PM,41.9,18.0,38,30.04,10.0,NNW,6.9,-,N/A,,Clear,330,2013-03-23 19:35:00
3:55 PM,42.3,17.6,37,30.04,7.0,North,4.6,-,N/A,,Clear,360,2013-03-23 19:55:00
4:15 PM,42.3,18.1,38,30.03,7.0,Calm,Calm,-,N/A,,Clear,0,2013-03-23 20:15:00
4:35 PM,42.8,19.2,39,30.03,10.0,NW,5.8,-,N/A,,Clear,320,2013-03-23 20:35:00
4:55 PM,43.2,19.9,40,30.02,5.0,NE,6.9,-,N/A,,Haze,40,2013-03-23 20:55:00
5:15 PM,43.3,19.9,39,30.01,5.0,Calm,Calm,-,N/A,,Haze,0,2013-03-23 21:15:00
5:35 PM,43.5,19.6,38,29.99,4.0,NNE,8.1,-,N/A,,Haze,20,2013-03-23 21:35:00
5:55 PM,43.5,20.3,40,30.00,7.0,NE,4.6,-,N/A,,Clear,50,2013-03-23 21:55:00
6:15 PM,43.2,21.2,42,30.00,4.0,NE,6.9,-,N/A,,Haze,50,2013-03-23 22:15:00
6:35 PM,42.8,21.7,43,29.99,7.0,NE,8.1,-,N/A,,Clear,50,2013-03-23 22:35:00
6:55 PM,42.3,21.0,43,29.99,5.0,ENE,9.2,-,N/A,,Haze,70,2013-03-23 22:55:00
7:15 PM,41.7,23.0,47,30.00,10.0,NE,8.1,-,N/A,,Clear,40,2013-03-23 23:15:00
7:35 PM,41.0,23.4,50,30.00,10.0,NE,8.1,-,N/A,,Clear,40,2013-03-23 23:35:00
7:55 PM,39.6,24.3,54,29.99,5.0,NE,8.1,-,N/A,,Haze,50,2013-03-23 23:55:00
8:15 PM,38.1,24.8,59,29.99,2.0,NE,5.8,-,N/A,Snow,Light Snow,40,2013-03-24 00:15:00
8:35 PM,37.0,24.4,60,29.99,5.0,NE,6.9,-,N/A,,Haze,50,2013-03-24 00:35:00
8:55 PM,35.6,24.1,63,29.99,7.0,ENE,5.8,-,N/A,,Clear,60,2013-03-24 00:55:00
9:15 PM,35.2,24.4,65,29.99,10.0,NE,6.9,-,N/A,,Clear,40,2013-03-24 01:15:00
9:35 PM,35.2,24.3,64,29.99,10.0,NE,8.1,-,N/A,,Clear,50,2013-03-24 01:35:00
9:55 PM,34.5,24.3,66,29.98,10.0,East,6.9,-,N/A,,Clear,80,2013-03-24 01:55:00
10:15 PM,34.7,24.4,66,29.97,10.0,ENE,9.2,-,N/A,,Clear,70,2013-03-24 02:15:00
10:35 PM,34.5,24.4,67,29.96,10.0,ENE,10.4,-,N/A,,Clear,70,2013-03-24 02:35:00
10:55 PM,34.2,24.4,68,29.95,10.0,East,11.5,16.1,N/A,,Clear,80,2013-03-24 02:55:00
11:15 PM,33.8,24.3,68,29.94,7.0,East,12.7,18.4,N/A,Snow,Light Snow,80,2013-03-24 03:15:00
11:35 PM,33.8,23.9,67,29.93,5.0,East,11.5,19.6,N/A,,Haze,80,2013-03-24 03:35:00
11:55 PM,33.4,23.5,67,29.94,10.0,East,13.8,-,N/A,,Clear,80,2013-03-24 03:55:00